Trenton, NJ

4:46 PM EST on January 16, 2018 (GMT -0500)
Trenton Mercer

Weather History for KTTN - June, 2013

Change the Weather History Date:

Monday, June 24, 2013

  Actual Average Record
Temperature  
Mean Temperature 81 °F 73 °F  
Max Temperature 92 °F 83 °F 98 °F (1894)
Min Temperature 69 °F 63 °F 50 °F (1947)
Degree Days  
Heating Degree Days 0 0  
Month to date heating degree days 4 22  
Since 1 June heating degree days 4 22  
Since 1 July heating degree days 4953 5158  
Cooling Degree Days 16 8  
Month to date cooling degree days 139 137  
Year to date cooling degree days 229 194  
Since 1 June cooling degree days 139 137  
Growing Degree Days 32 (Base 50)    
Moisture  
Dew Point 68 °F    
Average Humidity 69    
Maximum Humidity 93    
Minimum Humidity 44    
Precipitation  
Precipitation 0.00 in 0.13 in 1.94 in (2017)
Month to date precipitation 7.26 3.62  
Year to date precipitation 20.08 21.14  
Sea Level Pressure  
Sea Level Pressure 30.03 in    
Wind  
Wind Speed 5 mph (WSW)    
Max Wind Speed 17 mph    
Max Gust Speed 28 mph    
Visibility 9 miles    
Events      
T = Trace of Precipitation, MM = Missing Value Source: NWS Daily Summary

Daily Weather History Graph

Daily Weather History Graph

Search for Another Location

Airport or City:

Trip Planner

Search our weather history database for the weather conditions in past years. The results will help you decide how hot, cold, wet, or windy it might be!

Date:

Astronomy

Jun. 24, 2013 Rise Set
Actual Time 5:30 AM EDT 8:32 PM EDT
Civil Twilight 4:57 AM EDT 9:06 PM EDT
Nautical Twilight 4:15 AM EDT 9:48 PM EDT
Astronomical Twilight 3:26 AM EDT 10:37 PM EDT
Moon 9:33 PM EDT (6/24) 6:55 AM EDT (6/24)
Length of Visible Light 16h 08m
Length of Day
15h 02m
Full, 98% of the Moon is Illuminated
Jun 24
Full
Jun 30
Last Quarter
Jul 8
New
Jul 15
First Quarter
Jul 22
Full

Hourly Weather History & Observations

Time (EDT) Temp. Heat Index Dew Point Humidity Pressure Visibility Wind Dir Wind Speed Gust Speed Precip Events Conditions
12:53 AM 73.0 °F - 70.0 °F 90% 30.06 in 10.0 mi WSW 3.5 mph - N/A   Clear
1:53 AM 73.0 °F - 70.0 °F 90% 30.06 in 10.0 mi Calm Calm - N/A   Clear
2:53 AM 73.0 °F - 70.0 °F 90% 30.06 in 10.0 mi Calm Calm - N/A   Scattered Clouds
3:53 AM 72.0 °F - 70.0 °F 93% 30.05 in 7.0 mi SW 3.5 mph - N/A   Clear
4:53 AM 72.0 °F - 70.0 °F 93% 30.04 in 7.0 mi WSW 3.5 mph - 0.01 in   Clear
5:53 AM 72.0 °F - 70.0 °F 93% 30.05 in 7.0 mi WSW 3.5 mph - N/A   Clear
6:53 AM 73.0 °F - 70.0 °F 90% 30.06 in 7.0 mi SW 3.5 mph - N/A   Clear
7:53 AM 75.9 °F - 71.1 °F 85% 30.06 in 10.0 mi SW 5.8 mph - N/A   Clear
8:53 AM 80.1 °F 83.6 °F 71.1 °F 74% 30.06 in 10.0 mi West 4.6 mph - N/A   Clear
9:53 AM 82.9 °F 87.5 °F 71.1 °F 67% 30.06 in 10.0 mi Variable 3.5 mph - N/A   Clear
10:53 AM 86.0 °F 90.7 °F 70.0 °F 59% 30.06 in 10.0 mi Variable 4.6 mph - N/A   Clear
11:53 AM 88.0 °F 92.1 °F 69.1 °F 53% 30.05 in 10.0 mi WSW 6.9 mph - N/A   Clear
12:53 PM 90.0 °F 94.5 °F 69.1 °F 50% 30.05 in 10.0 mi Variable 5.8 mph - N/A   Clear
1:53 PM 91.9 °F 95.4 °F 66.9 °F 44% 30.02 in 10.0 mi WNW 10.4 mph - N/A   Clear
2:53 PM 89.1 °F 91.3 °F 66.0 °F 46% 29.99 in 9.0 mi West 6.9 mph - N/A   Partly Cloudy
3:53 PM 84.9 °F 88.2 °F 68.0 °F 57% 30.00 in 9.0 mi SW 9.2 mph 16.1 mph N/A   Clear
4:53 PM 81.0 °F 83.3 °F 66.9 °F 62% 29.99 in 10.0 mi South 10.4 mph - N/A   Clear
5:53 PM 81.0 °F 82.5 °F 64.0 °F 56% 29.98 in 10.0 mi SW 8.1 mph - N/A   Clear
6:53 PM 80.1 °F 81.5 °F 63.0 °F 56% 30.00 in 10.0 mi North 9.2 mph - N/A   Scattered Clouds
7:53 PM 79.0 °F - 64.0 °F 60% 29.98 in 10.0 mi SW 6.9 mph - N/A   Clear
8:53 PM 79.0 °F - 64.0 °F 60% 29.99 in 10.0 mi West 4.6 mph - N/A   Mostly Cloudy
9:53 PM 75.0 °F - 62.1 °F 64% 30.00 in 10.0 mi SW 5.8 mph - N/A   Clear
10:53 PM 73.0 °F - 63.0 °F 71% 29.99 in 10.0 mi Calm Calm - N/A   Clear
11:53 PM 72.0 °F - 64.0 °F 76% 30.00 in 10.0 mi Calm Calm - N/A   Clear